AirNav   Everest Fuels
 
 1668 users online  

7MO0 Truman Medical Center East Heliport
Kansas City, Missouri, USA

GOING TO KANSAS CITY?


FAA INFORMATION EFFECTIVE 11 AUGUST 2022

Location

FAA Identifier: 7MO0
Lat/Long: 38-58-24.8500N 094-23-35.3200W
38-58.414167N 094-23.588667W
38.9735694,-94.3931444
(estimated)
Elevation: 983 ft. / 300 m (estimated)
Variation: 05E (1990)
From city: 7 miles S of KANSAS CITY, MO
Time zone: UTC -5 (UTC -6 during Standard Time)
Zip code: 64139

Heliport Operations

Heliport use: Private use, MEDICAL USE.
Activation date: 02/1993
Control tower: no
ARTCC: KANSAS CITY CENTER
FSS: COLUMBIA FLIGHT SERVICE STATION
Attendance: UNATNDD
Wind indicator: yes
Segmented circle: no
Lights: SS-SR
Beacon: white-green-yellow (heliport)
Operates sunset to sunrise.

Heliport Communications

WX ASOS at LXT (1.3 nm SE): 124.175 (816-347-9807)
WX ASOS at MKC (13 nm NW): 120.75 (816-329-2843)
WX ASOS at OJC (18 nm SW): PHONE 913-780-6969

Nearby radio navigation aids

VOR radial/distance  VOR name  Freq  Var
ANXr232/14.3NAPOLEON VORTAC114.0007E
MCIr134/24.6KANSAS CITY VORTAC113.2505E

Heliport Services

Runway Information

Helipad H1

Dimensions: 35 x 35 ft. / 11 x 11 m
Surface: concrete
Runway edge lights: PERI
AND FLOOD LGTS.
Latitude: 38-58.414167N
Longitude: 094-23.588667W
Elevation: 983.0 ft.
Traffic pattern: leftleft

Heliport Ownership and Management from official FAA records

Ownership: Privately-owned
Owner: TRUMAN MEDICAL CENTER EAST
7900 LEE'S SUMMIT ROAD
KANSAS CITY, MO 64139
Phone 816-588-8670
Manager: DIRECTOR OF FACILITIES
7900 LEE'S SUMMIT ROAD
KANSAS CITY, MO 64139
Phone 816-588-8670
EXT 1292.

Additional Remarks

A52-H1 40 FT BLDG 90 FT W.
OWNER DESIRES ARPT NOT BE CHARTED.
FOR CD CTC KANSAS CITY APCH AT 816-329-2710.

Instrument Procedures

There are no published instrument procedures at 7MO0.

Some nearby airports with instrument procedures:

KLXT - Lee's Summit Municipal Airport (1 nm SE)
3GV - East Kansas City Airport (9 nm E)
KMKC - Charles B Wheeler Downtown Airport (13 nm NW)
KOJC - Johnson County Executive Airport (18 nm SW)
KGPH - Midwest National Air Center Airport (22 nm N)
 
Loc | Ops | Rwys | IFR | FBO | Links
Com | Nav | Svcs | Stats | Notes
Area around 7MO0 (Truman Medical Center East Heliport)
 
Road maps at: MapQuest Bing Google
 
Aerial photo
No photo
 
Sectional chart

 
Airport distance calculator
Flying to Truman Medical Center East Heliport? Find the distance to fly.

From to 7MO0

Sunrise and sunset
Times for 19-Aug-2022
 Local
(UTC-5)
 Zulu
(UTC)
Morning civil twilight06:0711:07
Sunrise06:3611:36
Sunset20:0701:07
Evening civil twilight20:3501:35

Current date and time
Zulu (UTC)  19-Aug-2022 18:23:33
Local (UTC-5)  19-Aug-2022 13:23:33
 
METAR
KLXT 191753Z AUTO 22014KT 10SM FEW080 BKN100 OVC120 20/18 A2995 RMK AO2 RAE50 SLP136 6//// T02000183 10244 20194 58002 PNO
KGVW 
12nm SW 
191755Z AUTO 28007KT 10SM CLR 28/22 A2997 RMK A01
KMKC 
13nm NW 
191754Z 25006KT 10SM BKN100 BKN120 23/18 A2994 RMK AO2 RAE1655B36E46 SLP131 P0000 60012 T02280183 10244 20206 51003
KOJC 
18nm SW 
191753Z 25005KT 10SM VCTS -RA BKN110 21/18 A2997 RMK AO2 SLP141 P0002 60019 T02110183 10244 20194 50001
TAF
KMKC 
13nm NW 
191726Z 1918/2018 22010KT P6SM VCSH BKN100 FM192100 24009KT P6SM -TSRA BKN060CB FM200300 21009KT P6SM SCT150 FM200900 29008KT P6SM BKN040
NOTAMs
Click for the latest NOTAMs
NOTAMs are issued by the DoD/FAA and will open in a separate window not controlled by AirNav.

 

 
 

Would you like to see your business listed on this page?

 If your business provides an interesting product or service to pilots, flight crews, aircraft, or users of the Truman Medical Center East Heliport, you should consider listing it here.  To start the listing process, click on the button below
 
Add a business
 

Other Pages about Truman Medical Center East Heliport

Update a link
 
Copyright © AirNav, LLC. All rights reserved. Privacy Policy  Contact